Torna al catalogo

NOAA 16 DEB

AttivoSSO
NORAD 41066·DEBRIS·🇺🇸 United States

Lanciato Sep 21, 2000 da Vandenberg Space Force Base

Loading…

Prossimi Passaggi (prossime 24 ore)

TLE

AggiornatoSource: Space-Track

Epoca: Sep 14, 2026, 11:05 UTC

1 41066U 00055Z   26257.46218612  .00000568  00000-0  28044-3 0  9999
2 41066  98.6563 335.0739 0015416   8.8350 351.3096 14.21198058558719

Traccia NOAA 16 DEB in tempo reale con AllMySat

Download on the App Store